Regional Weather Roundup
Issued by NWS Little Rock, AR

Home | Current Version | Previous Version | Graphics & Text | Print | Product List | Glossary On
Versions: 1 2 3 4 5 6 7 8 9 10 11 12 13 14 15 16 17 18 19 20 21 22 23 24 25 26 27 28 29 30 31 32 33 34 35 36 37 38 39 40 41 42 43 44 45 46 47 48 49 50
000
ASUS44 KLZK 120505
RWRLZK

WEATHER ROUNDUP FOR ARKANSAS
NATIONAL WEATHER SERVICE LITTLE ROCK AR
1200 AM CDT SAT JUL 12 2014

NOTE: "FAIR" INDICATES FEW OR NO CLOUDS BELOW 12,000 FEET WITH NO
SIGNIFICANT WEATHER AND/OR OBSTRUCTIONS TO VISIBILITY.

ARZ001-003-010-029-120600-
NORTHWEST ARKANSAS

CITY           SKY/WX    TMP DP  RH WIND       PRES   REMARKS
FAYETTEVILLE   CLEAR     71  70  96 CALM      30.16R
FORT SMITH     CLEAR     81  72  74 S5        30.12R HX  85
HARRISON       PTCLDY    75  71  87 CALM      30.17R
BENTONVILLE    CLEAR     75  66  73 SE3       30.17R
ROGERS         CLEAR     76  69  79 SE3       30.18R
SILOAM SPGS    CLEAR     73  64  73 S5        30.16S
HIGHFILL       CLEAR     74  70  87 S3        30.16R
$$

ARZ004-005-016-120600-
NORTH CENTRAL ARKANSAS

CITY           SKY/WX    TMP DP  RH WIND       PRES   REMARKS
BATESVILLE     CLEAR     77  73  88 SW5       30.15R
FLIPPIN        CLEAR     75  70  83 CALM      30.15R
MTN HOME       CLEAR     76  75  97 S5        30.15R
$$

ARZ040-041-120600-
WEST CENTRAL ARKANSAS

CITY           SKY/WX    TMP DP  RH WIND       PRES   REMARKS
MENA           CLEAR     75 N/A N/A CALM      30.18R
MOUNT IDA      CLEAR     75  73  93 CALM      30.14R
$$

ARZ009-017-025-026-028-120600-
NORTHEAST ARKANSAS

CITY           SKY/WX    TMP DP  RH WIND       PRES   REMARKS
CORNING        FAIR      75  75 100 S5        30.14S
JONESBORO      CLEAR     75  72  90 CALM      30.14S
NEWPORT        CLEAR     77  75  93 CALM      30.15S
WALNUT RIDGE   CLEAR     77  72  83 S5        30.14S
BLYTHEVILLE    CLEAR     77  72  84 SW3       30.15S
$$

ARZ022-023-033-042-044-120600-
CENTRAL ARKANSAS

CITY           SKY/WX    TMP DP  RH WIND       PRES   REMARKS
LITTLE ROCK    CLEAR     77  72  84 SE3       30.14S
N LITTLE ROCK  CLEAR     78  74  90 S3        30.14S
JACKSONVILLE   CLEAR     77  73  86 VRB2      30.14S
SEARCY         CLEAR     76  74  93 CALM      30.15S
HOT SPRINGS    CLEAR     78  75  90 E6        30.16R
RUSSELLVILLE   CLEAR     80  76  87 CALM      30.13R HX  86
CLINTON        FAIR      75  75 100 CALM      30.16S FOG
$$

ARZ036-120600-
EAST ARKANSAS

CITY           SKY/WX    TMP DP  RH WIND       PRES   REMARKS
WEST MEMPHIS   CLEAR     75  75 100 CALM      30.14R
$$

ARZ050-053-066-070-073-120600-
SOUTHWEST ARKANSAS

CITY           SKY/WX    TMP DP  RH WIND       PRES   REMARKS
ARKADELPHIA    FAIR      77  76  96 CALM      30.15R
CAMDEN         CLEAR     73  68  83 CALM      30.14S
TEXARKANA      CLEAR     79  75  87 E3        30.13S
EL DORADO      CLEAR     74  70  87 CALM      30.15S
DE QUEEN       CLEAR     74  73  97 CALM      30.12R
$$

ARZ056-057-069-120600-
SOUTHEAST ARKANSAS

CITY           SKY/WX    TMP DP  RH WIND       PRES   REMARKS
PINE BLUFF     CLEAR     76  73  91 CALM      30.15R
MONTICELLO     CLEAR     74  72  93 CALM      30.15R

$$




USA.gov is the U.S. government's official web portal to all federal, state and local government web resources and services.